Time,TemperatureF,DewpointF,PressureIn,WindDirection,WindDirectionDegrees,WindSpeedMPH,WindSpeedGustMPH,Humidity,HourlyPrecipIn,Conditions,Clouds,dailyrainin,SoftwareType,DateUTC
2013-11-27 00:22:00,38.0,26.0,30.55,WNW,287,0.0,1.0,61,0.00,,,-99.99,,2013-11-27 06:22:00,
2013-11-27 00:32:00,38.0,26.0,30.55,WNW,287,0.0,1.0,61,0.00,,,-99.99,,2013-11-27 06:32:00,
2013-11-27 00:42:00,38.0,26.0,30.55,WNW,287,0.0,1.0,61,0.00,,,-99.99,,2013-11-27 06:42:00,
2013-11-27 00:52:00,38.0,26.0,30.55,WNW,287,0.0,1.0,61,0.00,,,-99.99,,2013-11-27 06:52:00,
2013-11-27 01:02:00,38.0,26.0,30.55,WNW,287,0.0,1.0,61,0.00,,,-99.99,,2013-11-27 07:02:00,
2013-11-27 01:52:00,37.0,27.0,30.55,NNW,346,5.0,7.0,67,0.00,,,-99.99,,2013-11-27 07:52:00,
2013-11-27 02:21:00,37.0,27.0,30.55,NNE,18,5.0,7.0,68,0.00,,,-99.99,,2013-11-27 08:21:00,
2013-11-27 02:52:00,37.0,26.0,30.54,North,353,6.0,17.0,65,0.00,,,-99.99,,2013-11-27 08:52:00,
2013-11-27 03:02:00,37.0,26.0,30.54,North,353,6.0,17.0,65,0.00,,,-99.99,,2013-11-27 09:02:00,
2013-11-27 03:11:00,37.0,26.0,30.54,North,353,6.0,17.0,65,0.00,,,-99.99,,2013-11-27 09:11:00,
2013-11-27 03:22:00,37.0,26.0,30.54,North,353,6.0,17.0,65,0.00,,,-99.99,,2013-11-27 09:22:00,
2013-11-27 04:23:00,34.0,25.0,30.56,NNE,13,1.0,10.0,69,0.00,,,-99.99,,2013-11-27 10:23:00,
2013-11-27 04:42:00,34.0,24.0,30.57,North,9,3.0,9.0,66,0.00,,,-99.99,,2013-11-27 10:42:00,
2013-11-27 04:53:00,34.0,24.0,30.57,North,9,3.0,9.0,66,0.00,,,-99.99,,2013-11-27 10:53:00,
2013-11-27 05:02:00,34.0,24.0,30.57,North,9,3.0,9.0,66,0.00,,,-99.99,,2013-11-27 11:02:00,
2013-11-27 05:12:00,34.0,24.0,30.57,North,9,3.0,9.0,66,0.00,,,-99.99,,2013-11-27 11:12:00,
2013-11-27 06:52:00,30.0,21.0,30.61,NW,322,4.0,8.0,70,0.00,,,-99.99,,2013-11-27 12:52:00,
2013-11-27 07:22:00,30.0,22.0,30.63,NE,43,0.0,4.0,72,0.00,,,-99.99,,2013-11-27 13:22:00,
2013-11-27 07:52:00,28.0,21.0,30.64,West,269,0.0,1.0,74,0.00,,,-99.99,,2013-11-27 13:52:00,
2013-11-27 08:11:00,29.0,22.0,30.66,NW,309,0.0,2.0,74,0.00,,,-99.99,,2013-11-27 14:11:00,
2013-11-27 08:22:00,29.0,22.0,30.66,NW,309,0.0,2.0,74,0.00,,,-99.99,,2013-11-27 14:22:00,
2013-11-27 08:32:00,29.0,22.0,30.66,NW,309,0.0,2.0,74,0.00,,,-99.99,,2013-11-27 14:32:00,
2013-11-27 09:11:00,32.0,22.0,30.67,NNW,337,2.0,8.0,67,0.00,,,-99.99,,2013-11-27 15:11:00,
2013-11-27 09:22:00,32.0,22.0,30.67,NNW,337,2.0,8.0,67,0.00,,,-99.99,,2013-11-27 15:22:00,
2013-11-27 09:33:00,32.0,22.0,30.67,NNW,337,2.0,8.0,67,0.00,,,-99.99,,2013-11-27 15:33:00,
2013-11-27 09:53:00,35.0,17.0,30.67,NNE,26,8.0,8.0,47,0.00,,,-99.99,,2013-11-27 15:53:00,
2013-11-27 10:04:00,35.0,17.0,30.67,NNE,26,8.0,8.0,47,0.00,,,-99.99,,2013-11-27 16:04:00,
2013-11-27 10:13:00,35.0,17.0,30.67,NNE,26,8.0,8.0,47,0.00,,,-99.99,,2013-11-27 16:13:00,
2013-11-27 10:20:00,36.0,15.0,30.65,NNE,32,2.0,7.0,42,0.00,,,-99.99,,2013-11-27 16:20:00,
2013-11-27 10:24:00,35.0,17.0,30.67,NNE,26,8.0,8.0,47,0.00,,,-99.99,,2013-11-27 16:24:00,
2013-11-27 10:43:00,36.0,15.0,30.65,NNE,32,2.0,7.0,42,0.00,,,-99.99,,2013-11-27 16:43:00,
2013-11-27 10:53:00,36.0,15.0,30.65,NNE,32,2.0,7.0,42,0.00,,,-99.99,,2013-11-27 16:53:00,
2013-11-27 11:02:00,36.0,15.0,30.65,NNE,32,2.0,7.0,42,0.00,,,-99.99,,2013-11-27 17:02:00,
2013-11-27 11:12:00,36.0,15.0,30.65,NNE,32,2.0,7.0,42,0.00,,,-99.99,,2013-11-27 17:12:00,
2013-11-27 12:22:00,41.0,15.0,30.62,ENE,65,4.0,10.0,34,0.00,,,-99.99,,2013-11-27 18:22:00,
2013-11-27 12:32:00,41.0,15.0,30.62,ENE,65,4.0,10.0,34,0.00,,,-99.99,,2013-11-27 18:32:00,
2013-11-27 12:52:00,41.0,15.0,30.62,ENE,65,4.0,10.0,34,0.00,,,-99.99,,2013-11-27 18:52:00,
2013-11-27 13:12:00,43.0,16.0,30.57,NNE,32,4.0,9.0,33,0.00,,,-99.99,,2013-11-27 19:12:00,
2013-11-27 13:22:00,43.0,16.0,30.57,NNE,32,4.0,9.0,33,0.00,,,-99.99,,2013-11-27 19:22:00,
2013-11-27 13:32:00,43.0,16.0,30.57,NNE,32,4.0,9.0,33,0.00,,,-99.99,,2013-11-27 19:32:00,
2013-11-27 14:53:00,47.0,17.0,30.50,NNE,20,6.0,6.0,30,0.00,,,-99.99,,2013-11-27 20:53:00,
2013-11-27 15:22:00,47.0,16.0,30.49,NE,53,1.0,8.0,28,0.00,,,-99.99,,2013-11-27 21:22:00,
2013-11-27 15:33:00,47.0,16.0,30.49,NE,53,1.0,8.0,28,0.00,,,-99.99,,2013-11-27 21:33:00,
2013-11-27 15:53:00,48.0,16.0,30.48,NNW,335,2.0,6.0,27,0.00,,,-99.99,,2013-11-27 21:53:00,
2013-11-27 16:03:00,48.0,16.0,30.48,NNW,335,2.0,6.0,27,0.00,,,-99.99,,2013-11-27 22:03:00,
2013-11-27 16:23:00,48.0,16.0,30.48,North,351,2.0,3.0,27,0.00,,,-99.99,,2013-11-27 22:23:00,
2013-11-27 16:43:00,48.0,15.0,30.48,WNW,301,0.0,3.0,26,0.00,,,-99.99,,2013-11-27 22:43:00,
2013-11-27 16:52:00,48.0,15.0,30.48,WNW,301,0.0,3.0,26,0.00,,,-99.99,,2013-11-27 22:52:00,
2013-11-27 17:22:00,47.0,16.0,30.48,NNW,333,1.0,2.0,29,0.00,,,-99.99,,2013-11-27 23:22:00,
2013-11-27 17:33:00,47.0,16.0,30.48,NNW,333,1.0,2.0,29,0.00,,,-99.99,,2013-11-27 23:33:00,
2013-11-27 17:42:00,47.0,16.0,30.48,NNW,333,1.0,2.0,29,0.00,,,-99.99,,2013-11-27 23:42:00,
2013-11-27 17:52:00,47.0,16.0,30.48,NNW,333,1.0,2.0,29,0.00,,,-99.99,,2013-11-27 23:52:00,
2013-11-27 18:22:00,44.0,16.0,30.48,NE,53,0.0,0.0,32,0.00,,,-99.99,,2013-11-28 00:22:00,
2013-11-27 18:32:00,44.0,16.0,30.48,NE,53,0.0,0.0,32,0.00,,,-99.99,,2013-11-28 00:32:00,
2013-11-27 18:52:00,43.0,19.0,30.48,NE,56,1.0,3.0,37,0.00,,,-99.99,,2013-11-28 00:52:00,
2013-11-27 19:22:00,41.0,19.0,30.48,East,82,0.0,2.0,41,0.00,,,-99.99,,2013-11-28 01:22:00,
2013-11-27 19:32:00,41.0,19.0,30.48,East,82,0.0,2.0,41,0.00,,,-99.99,,2013-11-28 01:32:00,
2013-11-27 19:52:00,39.0,20.0,30.49,NE,51,0.0,0.0,46,0.00,,,-99.99,,2013-11-28 01:52:00,
2013-11-27 20:02:00,39.0,20.0,30.49,NE,51,0.0,0.0,46,0.00,,,-99.99,,2013-11-28 02:02:00,
2013-11-27 20:21:00,38.0,20.0,30.50,ENE,58,0.0,0.0,48,0.00,,,-99.99,,2013-11-28 02:21:00,
2013-11-27 20:32:00,38.0,20.0,30.50,ENE,58,0.0,0.0,48,0.00,,,-99.99,,2013-11-28 02:32:00,
2013-11-27 20:42:00,38.0,20.0,30.50,ENE,58,0.0,0.0,48,0.00,,,-99.99,,2013-11-28 02:42:00,
2013-11-27 20:52:00,38.0,20.0,30.50,ENE,58,0.0,0.0,48,0.00,,,-99.99,,2013-11-28 02:52:00,
2013-11-27 21:02:00,38.0,20.0,30.50,ENE,58,0.0,0.0,48,0.00,,,-99.99,,2013-11-28 03:02:00,
2013-11-27 21:21:00,39.0,19.0,30.50,ENE,63,0.0,0.0,45,0.00,,,-99.99,,2013-11-28 03:21:00,
2013-11-27 21:53:00,39.0,19.0,30.51,East,82,1.0,2.0,44,0.00,,,-99.99,,2013-11-28 03:53:00,
2013-11-27 22:23:00,39.0,20.0,30.51,East,82,2.0,2.0,47,0.00,,,-99.99,,2013-11-28 04:23:00,
2013-11-27 22:33:00,39.0,20.0,30.51,East,82,2.0,2.0,47,0.00,,,-99.99,,2013-11-28 04:33:00,
2013-11-27 22:52:00,39.0,20.0,30.51,East,82,2.0,2.0,47,0.00,,,-99.99,,2013-11-28 04:52:00,
2013-11-27 23:22:00,38.0,21.0,30.51,NW,316,0.0,1.0,49,0.00,,,-99.99,,2013-11-28 05:22:00,
2013-11-27 23:33:00,38.0,21.0,30.51,NW,316,0.0,1.0,49,0.00,,,-99.99,,2013-11-28 05:33:00,
2013-11-27 23:53:00,36.0,20.0,30.51,East,92,0.0,1.0,51,0.00,,,-99.99,,2013-11-28 05:53:00,